Back to catalog

COSMOS 375 DEB

AliveLEO
NORAD 4942·DEBRIS·🇷🇺 Russia

Launched Oct 30, 1970 from Baikonur Cosmodrome

Loading…

Next Passes

TLE

Source: Space-Track
1 04942U 70091AK  26229.90128325 -.00000012  00000-0  54014-4 0  9999
2 04942  63.0973 180.6010 0816560 259.3607  91.4508 12.95847431605072

Track COSMOS 375 DEB in real time with AllMySat

Download on the App Store